"America/Chicago Time","Lifetime Energy (kWh)","Power (W)","AC Volts RMS (V) ","AC Amps RMS (mA)","Grid Frequency (Hz)","Inverter Temperature (C)"
"09/02/12 10:31:14","429689.9229","147.1","217.06","675","60.03","33"
"09/02/12 10:36:14","429689.9344","149.9","217.17","692","60.03","33"
"09/02/12 10:41:14","429689.9461","150.0","216.06","695","60.0","34"
"09/02/12 10:46:14","429689.958","154.0","216.37","710","60.03","34"
"09/02/12 10:51:15","429689.9701","155.1","216.32","715","60.03","35"
"09/02/12 10:56:14","429689.9823","158.2","217.24","725","60.0","35"
"09/02/12 11:01:14","429689.9946","159.1","216.15","734","60.03","35"
"09/02/12 11:06:14","429690.0071","161.4","216.54","744","60.03","36"
"09/02/12 11:11:14","429690.0197","163.0","216.88","752","60.0","36"
"09/02/12 11:16:15","429690.0324","161.8","217.14","739","60.0","37"
"09/02/12 11:21:15","429690.0448","157.3","216.9","723","60.03","36"
"09/02/12 11:26:13","429690.0571","157.2","217.08","723","60.03","36"
"09/02/12 11:31:14","429690.0697","166.3","216.9","762","60.03","37"
"09/02/12 11:36:14","429690.0827","163.9","216.81","755","60.03","37"
"09/02/12 11:41:15","429690.0956","168.0","217.38","769","60.03","37"
"09/02/12 11:46:15","429690.1084","162.1","216.93","741","60.03","37"
"09/02/12 11:51:15","429690.1207","157.7","217.15","724","60.0","37"
"09/02/12 11:56:13","429690.1323","146.9","216.29","682","60.03","37"
"09/02/12 12:01:13","429690.1443","148.3","216.29","690","60.03","36"
"09/02/12 12:06:15","429690.1551","133.9","216.24","623","60.03","36"
"09/02/12 12:11:14","429690.1658","142.2","216.5","664","60.0","36"
"09/02/12 12:16:14","429690.1777","169.9","217.07","768","60.03","37"
"09/02/12 12:21:14","429690.1902","155.9","216.08","721","60.03","37"
"09/02/12 12:26:13","429690.2027","161.7","216.33","749","59.96","37"
"09/02/12 12:31:15","429690.2158","164.1","217.49","749","60.03","37"
"09/02/12 12:36:14","429690.2288","160.3","217.63","733","60.03","38"
"09/02/12 12:41:14","429690.2387","92.1","215.88","447","60.03","36"
"09/02/12 12:46:14","429690.2482","163.4","216.01","751","60.0","36"
"09/02/12 12:51:14","429690.2605","156.2","215.89","722","60.03","37"
"09/02/12 12:56:14","429690.2731","165.0","216.58","758","60.03","37"
"09/02/12 13:01:13","429690.2859","166.8","216.13","771","60.03","37"
"09/02/12 13:06:14","429690.299","168.2","215.91","776","60.0","38"
"09/02/12 13:11:13","429690.3117","165.4","216.94","757","60.0","38"
"09/02/12 13:16:15","429690.3249","170.2","217.14","781","60.03","39"
"09/02/12 13:21:15","429690.338","167.5","216.78","770","60.03","39"
"09/02/12 13:26:14","429690.3509","165.6","216.87","762","60.0","40"
"09/02/12 13:31:14","429690.3637","165.2","216.71","756","60.03","39"
"09/02/12 13:36:13","429690.3765","162.4","217.14","745","60.03","39"
"09/02/12 13:41:14","429690.3888","151.6","216.28","699","60.0","39"
"09/02/12 13:46:15","429690.4002","137.4","215.71","640","60.0","39"
"09/02/12 13:51:14","429690.411","135.6","216.5","633","60.03","39"
"09/02/12 13:56:13","429690.4231","159.0","217.15","731","60.0","39"
"09/02/12 14:01:14","429690.4356","159.6","216.38","740","60.03","39"
"09/02/12 14:06:13","429690.4479","155.9","216.5","720","60.03","39"
"09/02/12 14:11:15","429690.4599","150.3","215.72","699","60.03","39"
"09/02/12 14:16:14","429690.4711","143.6","216.89","669","60.03","39"
"09/02/12 14:21:15","429690.4825","151.0","216.71","695","60.03","39"
"09/02/12 14:26:15","429690.4942","150.2","216.28","698","60.0","39"
"09/02/12 14:31:14","429690.5058","143.6","216.34","666","60.03","39"
"09/02/12 14:36:15","429690.5169","139.3","216.63","642","59.96","38"
"09/02/12 14:41:15","429690.5274","140.7","216.29","658","60.0","38"
"09/02/12 14:46:14","429690.5385","144.1","215.42","670","60.0","38"
"09/02/12 14:51:15","429690.5488","114.0","214.55","542","60.0","38"
"09/02/12 14:56:15","429690.5587","141.1","215.76","657","60.0","38"
"09/02/12 15:01:15","429690.5696","136.8","215.72","638","60.07","38"
"09/02/12 15:06:13","429690.58","132.4","216.18","622","60.07","38"
"09/02/12 15:11:15","429690.5904","132.2","216.09","618","60.0","38"
"09/02/12 15:16:13","429690.6006","130.3","215.32","611","60.03","37"
"09/02/12 15:21:14","429690.6106","126.9","215.9","597","60.0","37"
"09/02/12 15:26:13","429690.6204","125.7","215.79","591","60.0","37"
"09/02/12 15:31:14","429690.6301","121.4","216.45","568","60.03","37"
"09/02/12 15:36:13","429690.6394","119.9","217.21","561","60.03","37"
"09/02/12 15:41:14","429690.6485","115.5","216.23","548","60.03","36"
"09/02/12 15:46:14","429690.6574","113.8","215.62","541","60.0","36"
"09/02/12 15:51:13","429690.6661","110.4","215.28","526","60.0","36"
"09/02/12 15:56:14","429690.6745","103.2","215.16","496","60.03","35"
"09/02/12 16:01:15","429690.682","88.2","215.58","429","60.03","35"
"09/02/12 16:06:13","429690.689","89.5","214.18","435","60.03","35"
"09/02/12 16:11:15","429690.6962","94.5","215.02","460","60.03","35"
"09/02/12 16:16:14","429690.7033","84.3","215.11","415","60.03","34"
"09/02/12 16:21:14","429690.7087","46.0","215.0","415","60.03","34"
"09/02/12 16:26:15","429690.7112","13.1","214.72","20","60.03","33"
"09/02/12 16:31:15","429690.7128","23.9","214.24","17","60.03","32"
"09/02/12 16:36:13","429690.7151","26.4","213.93","107","60.0","31"
"09/02/12 16:41:14","429690.7172","20.7","214.17","167","60.03","31"
"09/02/12 16:46:13","429690.7193","25.0","214.39","84","60.0","30"
"09/02/12 16:51:14","429690.7214","24.2","214.6","105","60.03","30"
"09/02/12 16:56:13","429690.724","37.5","214.91","296","60.0","29"
"09/02/12 17:01:14","429690.7282","76.1","215.01","377","60.03","29"
"09/02/12 17:06:14","429690.7342","73.9","214.73","370","60.0","30"
"09/02/12 17:11:15","429690.7396","66.7","215.4","338","60.0","30"
"09/02/12 17:16:15","429690.7444","44.5","214.62","349","60.03","30"
"09/02/12 17:21:15","429690.7484","55.9","214.0","122","60.03","30"
"09/02/12 17:26:14","429690.7519","36.1","214.57","336","60.0","30"
"09/02/12 17:31:14","429690.7549","40.5","212.94","134","60.03","30"
"09/02/12 17:36:13","429690.7577","38.1","213.43","114","60.03","29"
"09/02/12 17:41:13","429690.7601","25.2","214.1","82","60.03","29"
"09/02/12 17:46:13","429690.7622","26.4","213.69","18","60.0","29"
"09/02/12 17:51:15","429690.7641","13.6","214.0","266","60.03","29"
"09/02/12 17:56:14","429690.7656","18.5","213.65","138","60.0","28"
"09/02/12 18:01:14","429690.7669","12.3","213.29","11","60.0","28"
"09/02/12 18:06:13","429690.7679","13.8","213.49","95","60.03","28"
"09/02/12 18:11:14","429690.7686","13.2","214.07","1","60.0","28"
"09/02/12 18:16:14","429690.7691","14.7","213.98","0","60.03","27"
"09/02/12 18:21:15","429690.7694","0.0","213.53","0","60.03","27"
"09/02/12 18:36:15","429690.77","0.0","214.04","0","60.03","26"
"09/02/12 18:41:20","429690.77","0.0","212.79","0","60.0","26"
"09/02/12 18:46:14","429690.7702","0.0","212.14","0","60.03","26"
"09/03/12 07:53:42","429690.7711","0.0","214.59","0","60.0","21"
"09/03/12 07:58:37","429690.7718","14.3","214.08","140","60.03","22"
"09/03/12 08:03:38","429690.7726","0.0","213.69","0","60.0","22"
"09/03/12 08:08:37","429690.7731","0.0","212.68","0","60.0","22"
"09/03/12 08:13:37","429690.7741","13.5","214.36","142","60.0","22"
"09/03/12 08:18:37","429690.7757","12.9","213.28","6","60.03","23"
"09/03/12 08:23:37","429690.7773","33.3","213.6","117","60.0","23"
"09/03/12 08:28:37","429690.7794","37.1","214.12","289","60.0","23"
"09/03/12 08:33:37","429690.7828","33.9","213.69","107","60.0","24"
"09/03/12 08:38:37","429690.7851","29.8","212.99","291","60.0","24"
"09/03/12 08:43:37","429690.7887","76.6","214.69","382","60.03","25"
"09/03/12 08:48:37","429690.7943","80.3","214.3","399","60.0","25"
"09/03/12 08:53:37","429690.8","40.5","213.47","231","60.03","26"
"09/03/12 08:58:37","429690.8029","69.2","214.19","350","60.03","27"
"09/03/12 09:03:37","429690.8077","66.4","214.7","335","60.03","27"
"09/03/12 09:08:36","429690.8113","46.7","213.96","365","60.0","28"
"09/03/12 09:13:38","429690.8137","15.9","213.05","281","60.0","28"
"09/03/12 09:18:38","429690.8162","39.9","213.55","168","60.0","28"
"09/03/12 09:23:37","429690.8187","31.5","212.95","163","60.0","28"
"09/03/12 09:28:38","429690.8211","48.5","213.3","241","60.0","28"
"09/03/12 09:33:38","429690.8247","37.2","213.61","147","60.0","28"
"09/03/12 09:38:38","429690.8274","51.9","214.25","246","60.0","28"
"09/03/12 09:43:37","429690.8314","46.1","213.97","283","60.03","29"
"09/03/12 09:48:37","429690.8347","32.7","213.03","248","60.03","29"
"09/03/12 09:53:37","429690.8372","20.3","212.7","200","60.0","29"
"09/03/12 09:58:37","429690.8392","31.9","213.5","109","60.03","29"
"09/03/12 10:03:38","429690.8413","26.1","212.78","248","60.03","29"
"09/03/12 10:08:38","429690.843","27.1","212.65","75","60.0","29"
"09/03/12 10:13:38","429690.8446","31.9","212.47","37","60.03","29"
"09/03/12 10:18:38","429690.8463","32.1","213.79","253","60.0","29"
"09/03/12 10:23:37","429690.8482","27.3","213.89","145","60.03","29"
"09/03/12 10:28:38","429690.8507","36.1","213.58","88","60.0","29"
"09/03/12 10:33:38","429690.8531","31.5","213.11","162","60.0","29"
"09/03/12 10:38:38","429690.8555","40.2","214.58","95","60.0","29"
"09/03/12 10:43:37","429690.8582","46.8","214.03","157","60.0","29"
"09/03/12 10:48:37","429690.8617","42.9","214.92","324","60.03","30"
"09/03/12 10:53:38","429690.8661","60.8","215.8","311","60.03","30"
"09/03/12 10:58:38","429690.8712","71.8","215.84","361","60.03","31"
"09/03/12 11:03:37","429690.8782","115.9","217.88","543","60.0","31"
"09/03/12 11:08:38","429690.8887","114.3","216.72","545","60.07","32"
"09/03/12 11:13:37","429690.898","94.9","215.34","459","60.03","33"
"09/03/12 11:18:38","429690.9048","54.4","215.06","113","60.0","33"
"09/03/12 11:23:38","429690.9093","65.6","215.41","169","60.0","33"
"09/03/12 11:28:38","429690.9124","25.5","214.86","66","60.03","33"
"09/03/12 11:33:38","429690.9153","47.3","214.27","404","60.03","33"
"09/03/12 11:38:37","429690.9197","43.2","214.8","231","60.0","32"
"09/03/12 11:43:37","429690.9232","66.5","215.03","182","60.03","32"
"09/03/12 11:48:39","429690.9272","42.7","214.44","297","60.0","32"
"09/03/12 11:53:38","429690.9317","42.7","214.77","405","60.03","32"
"09/03/12 11:58:38","429690.9363","65.2","214.39","175","60.0","32"
"09/03/12 12:03:38","429690.9399","48.1","214.96","378","60.07","32"
"09/03/12 12:08:37","429690.9439","57.2","214.84","91","60.07","32"
"09/03/12 12:13:37","429690.9473","39.2","213.36","143","60.0","32"
"09/03/12 12:18:37","429690.9539","100.8","215.64","484","60.0","33"
"09/03/12 12:23:37","429690.9619","64.3","214.14","326","60.03","33"
"09/03/12 12:28:37","429690.9679","87.3","214.26","428","60.0","33"
"09/03/12 12:33:38","429690.9729","61.5","213.82","133","60.0","33"
"09/03/12 12:38:37","429690.9797","176.1","217.71","804","60.03","34"
"09/03/12 12:43:38","429690.9929","143.7","216.25","667","60.03","35"
"09/03/12 12:48:38","429691.0031","183.7","217.43","836","60.0","36"
"09/03/12 12:53:38","429691.0145","115.0","215.65","540","60.03","37"
"09/03/12 12:58:37","429691.0245","59.9","214.01","234","60.07","37"
"09/03/12 13:03:38","429691.0335","186.8","216.28","852","60.03","38"
"09/03/12 13:08:38","429691.0464","189.5","216.92","866","60.03","39"
"09/03/12 13:13:38","429691.0591","188.8","216.59","860","60.0","40"
"09/03/12 13:18:37","429691.0696","170.4","216.19","781","60.03","39"
"09/03/12 13:23:37","429691.0837","184.5","216.37","842","60.03","41"
"09/03/12 13:28:38","429691.0973","173.1","215.58","798","60.03","42"
"09/03/12 13:33:37","429691.1109","166.7","215.45","770","60.03","43"
"09/03/12 13:38:37","429691.1234","156.7","215.9","726","60.03","43"
"09/03/12 13:43:37","429691.1363","169.2","215.87","778","60.03","43"
"09/03/12 13:48:37","429691.1495","175.9","216.85","808","60.03","43"
"09/03/12 13:53:37","429691.1627","168.2","216.28","777","60.0","44"
"09/03/12 13:58:38","429691.1759","168.9","216.58","774","60.03","44"
"09/03/12 14:03:38","429691.189","165.0","217.04","750","60.03","44"
"09/03/12 14:08:37","429691.2016","162.3","216.77","749","60.03","44"
"09/03/12 14:13:39","429691.2142","161.3","216.71","744","60.03","44"
"09/03/12 14:18:38","429691.2267","161.2","215.92","745","60.03","45"
"09/03/12 14:23:38","429691.2385","109.0","215.13","521","60.03","44"
"09/03/12 14:28:38","429691.2461","84.8","215.51","414","60.0","43"
"09/03/12 14:33:37","429691.2531","79.7","215.1","394","60.0","43"
"09/03/12 14:38:38","429691.2614","126.2","215.34","598","60.0","42"
"09/03/12 14:43:38","429691.2679","62.4","213.47","322","60.03","41"
"09/03/12 14:48:37","429691.2733","76.3","214.19","379","60.03","41"
"09/03/12 14:53:37","429691.2784","54.4","213.55","149","60.03","40"
"09/03/12 14:58:37","429691.2819","53.5","212.94","127","60.0","39"
"09/03/12 15:03:37","429691.2857","60.8","213.68","107","60.03","38"
"09/03/12 15:08:38","429691.2903","99.1","215.52","477","60.03","38"
"09/03/12 15:13:38","429691.2975","50.4","213.68","171","60.0","37"
"09/03/12 15:18:37","429691.3025","143.4","215.23","664","60.0","37"
"09/03/12 15:23:37","429691.3129","139.9","215.02","656","60.0","38"
"09/03/12 15:28:38","429691.3234","117.9","213.83","562","60.03","38"
"09/03/12 15:33:38","429691.332","127.7","214.81","601","60.0","38"
"09/03/12 15:38:38","429691.3414","116.9","213.46","557","60.0","38"
"09/03/12 15:43:38","429691.3508","117.9","215.0","558","60.03","39"
"09/03/12 15:48:37","429691.3597","113.3","214.69","539","60.0","39"
"09/03/12 15:53:38","429691.3684","109.0","214.11","525","60.0","39"
"09/03/12 15:58:37","429691.3767","106.4","213.39","510","60.03","39"
"09/03/12 16:03:38","429691.385","103.7","213.58","502","60.0","39"
"09/03/12 16:08:37","429691.3928","100.5","213.34","487","60.03","39"
"09/03/12 16:13:37","429691.4005","96.8","213.11","469","60.03","39"
"09/03/12 16:18:37","429691.4078","93.2","212.96","457","60.03","39"
"09/03/12 16:23:37","429691.415","89.3","212.71","443","60.0","39"
"09/03/12 16:28:37","429691.4217","85.9","213.12","427","60.03","38"
"09/03/12 16:33:37","429691.4283","81.8","212.55","407","60.03","38"
"09/03/12 16:38:38","429691.4344","78.0","213.04","389","60.03","38"
"09/03/12 16:43:37","429691.4403","73.6","214.05","368","60.03","38"
"09/03/12 16:48:37","429691.4459","70.0","212.76","357","60.03","38"
"09/03/12 16:53:37","429691.4513","66.2","213.1","339","60.03","37"
"09/03/12 16:58:38","429691.4563","61.9","213.04","320","60.03","37"
"09/03/12 17:03:37","429691.4605","42.0","213.64","389","60.0","37"
"09/03/12 17:08:38","429691.4644","63.3","213.68","296","60.0","37"
"09/03/12 17:13:38","429691.4685","54.3","213.64","184","60.03","36"
"09/03/12 17:18:38","429691.4721","40.8","213.23","108","60.03","36"
"09/03/12 17:23:38","429691.4756","35.6","213.09","97","60.03","36"
"09/03/12 17:28:38","429691.4786","38.2","212.84","218","60.03","35"
"09/03/12 17:33:37","429691.4815","39.1","213.54","297","60.0","35"
"09/03/12 17:38:37","429691.484","26.5","213.53","145","60.03","34"
"09/03/12 17:43:38","429691.4862","29.9","213.51","16","60.03","34"
"09/03/12 17:48:38","429691.4881","31.3","212.9","197","60.03","34"
"09/03/12 17:53:39","429691.4898","27.7","211.76","27","60.03","33"
"09/03/12 17:58:37","429691.4912","15.6","212.96","37","60.03","33"
"09/03/12 18:03:38","429691.4924","14.0","213.05","2","60.0","32"
"09/03/12 18:08:37","429691.4933","11.1","212.96","32","60.03","32"
"09/03/12 18:13:39","429691.494","0.0","212.2","90","60.03","32"
"09/03/12 18:18:37","429691.4945","2.6","211.97","0","60.03","32"
"09/03/12 18:23:37","429691.4949","0.0","212.07","0","60.03","31"
"09/04/12 06:53:40","429691.4951","0.0","213.61","116","60.03","18"
"09/04/12 06:58:38","429691.4955","0.0","214.7","0","60.07","18"
"09/04/12 07:03:37","429691.4961","13.2","213.75","18","60.0","18"
"09/04/12 07:08:38","429691.4968","11.9","213.49","27","60.03","19"
"09/04/12 07:13:39","429691.4978","12.6","214.34","11","60.03","19"
"09/04/12 07:18:38","429691.4989","17.0","214.83","24","60.0","19"
"09/04/12 07:23:37","429691.5003","16.5","213.62","250","60.03","20"
"09/04/12 07:28:38","429691.502","32.8","214.47","245","60.03","20"
"09/04/12 07:33:38","429691.504","24.9","214.3","20","60.03","20"
"09/04/12 07:38:39","429691.5063","26.8","214.37","243","60.03","20"
"09/04/12 07:43:39","429691.5089","39.4","213.88","256","60.0","22"
"09/04/12 07:48:38","429691.5116","42.9","214.03","252","60.07","22"
"09/04/12 07:53:38","429691.5148","38.5","211.93","152","60.03","23"
"09/04/12 07:58:39","429691.5183","50.3","214.25","186","60.0","23"
"09/04/12 08:03:39","429691.5221","54.2","214.87","223","60.07","24"
"09/04/12 08:08:38","429691.5259","54.0","213.2","102","60.03","25"
"09/04/12 08:13:37","429691.5298","61.3","215.19","351","60.0","25"
"09/04/12 08:18:37","429691.5337","47.2","214.24","347","60.0","26"
"09/04/12 08:23:37","429691.5376","53.4","214.23","358","60.03","26"
"09/04/12 08:28:38","429691.5427","74.0","214.82","372","60.03","27"
"09/04/12 08:33:39","429691.5487","79.1","215.67","388","60.03","27"
"09/04/12 08:38:38","429691.555","83.0","214.87","410","60.03","28"
"09/04/12 08:43:37","429691.5616","86.9","214.83","425","60.0","28"
"09/04/12 08:48:38","429691.5685","90.8","215.04","443","60.0","29"
"09/04/12 08:53:39","429691.5757","94.4","215.0","460","60.03","30"
"09/04/12 08:58:37","429691.5832","98.0","215.22","474","60.03","30"
"09/04/12 09:03:38","429691.591","100.5","215.81","481","60.03","31"
"09/04/12 09:08:38","429691.5989","103.7","215.46","497","60.03","32"
"09/04/12 09:13:38","429691.6071","107.0","215.8","513","60.0","32"
"09/04/12 09:18:39","429691.6156","109.9","215.95","524","60.0","32"
"09/04/12 09:23:38","429691.6242","112.7","214.89","538","60.0","33"
"09/04/12 09:28:39","429691.6331","115.1","214.81","549","60.03","34"
"09/04/12 09:33:37","429691.6421","117.3","215.16","559","60.03","35"
"09/04/12 09:38:37","429691.6513","120.0","215.12","565","60.0","36"
"09/04/12 09:43:38","429691.6608","122.7","215.01","576","60.0","37"
"09/04/12 09:48:39","429691.6704","124.1","214.41","589","60.03","38"
"09/04/12 09:53:37","429691.6802","126.6","215.95","598","60.03","39"
"09/04/12 09:58:38","429691.6901","128.9","214.26","609","60.0","40"
"09/04/12 10:03:38","429691.7003","132.1","214.7","623","60.03","40"
"09/04/12 10:08:38","429691.7107","135.7","214.11","639","60.0","40"
"09/04/12 10:13:38","429691.7214","138.9","215.87","645","60.0","40"
"09/04/12 10:18:38","429691.7323","141.4","216.06","660","60.03","40"
"09/04/12 10:23:39","429691.7435","144.0","216.51","670","60.03","40"
"09/04/12 10:28:38","429691.7547","145.6","215.58","680","60.0","40"
"09/04/12 10:33:38","429691.7663","148.1","215.68","691","60.03","40"
"09/04/12 10:38:39","429691.7779","150.3","215.5","689","60.03","40"
"09/04/12 10:43:38","429691.7896","150.9","215.35","697","60.0","40"
"09/04/12 10:48:37","429691.8013","152.1","216.19","707","60.03","41"
"09/04/12 10:53:37","429691.8133","154.1","216.87","710","60.0","41"
"09/04/12 10:58:38","429691.8253","154.8","216.48","715","60.03","42"
"09/04/12 11:03:37","429691.8374","155.7","216.65","719","60.0","43"
"09/04/12 11:08:38","429691.8497","158.3","217.21","729","60.03","43"
"09/04/12 11:13:38","429691.8621","159.7","217.25","735","60.0","43"
"09/04/12 11:18:38","429691.8746","161.0","217.01","738","60.0","43"
"09/04/12 11:23:38","429691.8872","161.6","216.73","741","60.03","44"
"09/04/12 11:28:38","429691.8999","163.9","215.84","757","60.03","44"
"09/04/12 11:33:39","429691.9126","163.2","216.53","751","60.0","44"
"09/04/12 11:38:38","429691.9254","164.2","216.29","755","60.03","44"
"09/04/12 11:43:38","429691.9382","165.2","216.23","760","60.03","44"
"09/04/12 11:48:38","429691.9511","166.8","216.99","765","60.03","45"
"09/04/12 11:53:38","429691.9642","168.3","216.4","770","60.03","44"
"09/04/12 11:58:37","429691.9772","168.0","216.59","766","60.03","45"
"09/04/12 12:03:38","429691.9904","169.0","215.92","778","60.0","44"
"09/04/12 12:08:38","429692.0035","169.2","216.1","778","60.03","44"
"09/04/12 12:13:37","429692.0167","169.9","216.83","778","60.0","44"
"09/04/12 12:18:39","429692.0299","170.4","216.21","784","60.0","44"
"09/04/12 12:23:39","429692.0432","170.3","216.71","777","60.03","44"
"09/04/12 12:28:39","429692.0565","171.1","216.69","785","60.0","44"
"09/04/12 12:33:37","429692.0698","171.4","217.37","785","60.0","44"
"09/04/12 12:38:38","429692.0831","171.8","216.79","788","60.03","44"
"09/04/12 12:43:39","429692.0967","171.3","215.72","787","60.0","44"
"09/04/12 12:48:39","429692.1098","190.2","215.53","873","60.03","44"
"09/04/12 12:53:37","429692.1205","127.6","214.61","603","60.0","43"
"09/04/12 12:58:38","429692.1305","110.8","215.21","523","60.07","43"
"09/04/12 13:03:39","429692.1425","175.8","216.86","803","60.03","43"
"09/04/12 13:08:39","429692.1544","128.4","216.1","601","60.0","43"
"09/04/12 13:13:38","429692.1684","181.6","216.14","832","60.0","43"
"09/04/12 13:18:38","429692.182","171.6","216.63","789","60.0","43"
"09/04/12 13:23:38","429692.1954","169.9","215.62","782","60.03","43"
"09/04/12 13:28:37","429692.2086","167.7","216.84","770","60.03","43"
"09/04/12 13:33:38","429692.2216","165.9","216.93","757","60.0","43"
"09/04/12 13:38:38","429692.2343","162.6","215.76","752","60.03","43"
"09/04/12 13:43:38","429692.247","161.7","215.77","746","60.03","43"
"09/04/12 13:48:39","429692.2595","160.3","215.99","738","60.03","43"
"09/04/12 13:53:39","429692.2719","159.0","216.71","732","60.03","43"
"09/04/12 13:58:38","429692.2842","158.5","216.96","732","60.03","43"
"09/04/12 14:03:38","429692.2966","157.3","217.05","724","60.03","43"
"09/04/12 14:08:38","429692.3088","155.8","216.29","723","60.0","43"
"09/04/12 14:13:39","429692.3209","154.1","215.88","714","60.0","43"
"09/04/12 14:18:39","429692.3329","152.9","216.8","704","60.0","43"
"09/04/12 14:23:39","429692.3448","151.1","215.88","703","60.0","43"
"09/04/12 14:28:39","429692.3565","150.1","215.87","697","60.0","42"
"09/04/12 14:33:39","429692.3682","148.2","215.31","692","60.0","42"
"09/04/12 14:38:37","429692.3795","146.6","215.27","683","60.03","41"
"09/04/12 14:43:39","429692.391","144.5","215.62","673","60.0","41"
"09/04/12 14:48:37","429692.402","142.2","215.98","665","60.0","41"
"09/04/12 14:53:38","429692.4131","140.2","216.26","651","60.0","40"
"09/04/12 14:58:39","429692.4239","137.8","216.01","642","60.03","40"
"09/04/12 15:03:38","429692.4346","135.6","215.74","634","60.03","39"
"09/04/12 15:08:39","429692.4451","133.1","215.4","624","60.0","39"
"09/04/12 15:13:39","429692.4554","130.5","215.44","616","60.03","39"
"09/04/12 15:18:37","429692.4653","127.7","215.3","603","60.03","38"
"09/04/12 15:23:37","429692.4752","124.9","215.51","588","60.0","38"
"09/04/12 15:28:38","429692.4848","122.6","215.81","576","60.03","38"
"09/04/12 15:33:39","429692.4943","119.4","214.77","567","60.03","38"
"09/04/12 15:38:39","429692.5035","116.7","215.1","552","60.0","38"
"09/04/12 15:43:38","429692.5124","113.9","215.2","540","60.03","37"
"09/04/12 15:48:38","429692.5211","110.6","214.91","529","60.03","37"
"09/04/12 15:53:38","429692.5296","107.6","214.77","514","60.03","36"
"09/04/12 15:58:38","429692.5365","82.5","215.41","407","60.0","36"
"09/04/12 16:03:39","429692.5447","104.2","215.82","500","60.0","36"
"09/04/12 16:08:37","429692.5525","98.8","215.75","474","60.0","35"
"09/04/12 16:13:39","429692.5582","97.6","215.14","472","60.03","34"
"09/04/12 16:18:39","429692.5654","91.7","214.96","445","60.0","34"
"09/04/12 16:23:37","429692.5723","87.0","214.7","428","60.0","33"
"09/04/12 16:28:37","429692.5789","82.0","214.37","408","60.03","33"
"09/04/12 16:33:39","429692.5852","78.4","214.21","393","60.03","32"
"09/04/12 16:38:37","429692.5911","74.9","214.84","372","60.03","32"
"09/04/12 16:43:39","429692.5968","70.2","214.08","351","60.03","32"
"09/04/12 16:48:39","429692.6021","66.6","214.12","338","60.03","32"
"09/04/12 16:53:39","429692.6072","62.7","213.49","320","60.03","32"
"09/04/12 16:58:38","429692.6114","37.8","215.36","107","60.03","31"